Simultaneous Nadir Overpasses (SNOs) Predictions

Prediction of SNOs between LANDSAT-8 and NOAA-19 Satellite Orbit:

Table of predicted SNOs for the next 14.0 days since TLE Epoch: 7/30/2016
Index Date (LANDSAT-8) Time (LANDSAT-8) Lat,Lon (LANDSAT-8) SZA (LANDSAT-8 ) Date (NOAA-19) Time (NOAA-19) Lat,Lon (NOAA-19) SZA (NOAA-19 ) Distance(km) Time Diff (sec)
1 07/30/2016 06:07:26 74.94, 93.52 56.51 07/30/2016 06:06:24 74.93, 93.46 56.49 2.34 62
2 07/30/2016 06:56:55 -74.87, -99.04 123.57 07/30/2016 06:57:21 -74.87, -99.10 123.56 1.86 26
3 08/01/2016 11:41:12 -74.91,-170.00 122.97 08/01/2016 11:40:23 -74.90,-169.91 122.98 2.72 49
4 08/01/2016 12:30:39 74.84, -2.54 56.96 08/01/2016 12:31:25 74.85, -2.51 56.98 1.45 46
5 08/03/2016 17:14:55 74.93, -73.37 57.63 08/03/2016 17:14:27 74.92, -73.41 57.62 1.94 28
6 08/03/2016 18:04:24 -74.86, 94.08 122.44 08/03/2016 18:05:25 -74.85, 94.05 122.44 1.70 61
7 08/05/2016 22:48:41 -74.90, 23.11 121.80 08/05/2016 22:48:27 -74.89, 23.22 121.81 3.47 14
8 08/05/2016 23:38:13 74.57,-170.08 57.87 08/05/2016 23:39:22 74.56,-168.60 57.90 43.94 69
9 08/08/2016 03:32:48 -75.44, -46.50 120.60 08/08/2016 03:31:41 -75.48, -49.34 120.62 79.52 67
10 08/08/2016 04:22:24 74.91, 119.71 58.85 08/08/2016 04:22:30 74.92, 119.66 58.86 2.10 6
11 08/10/2016 09:06:41 74.95, 48.73 59.52 08/10/2016 09:05:31 74.96, 48.86 59.53 3.84 70
12 08/10/2016 09:56:10 -74.88,-143.80 120.54 08/10/2016 09:56:31 -74.89,-143.70 120.53 2.96 21
13 08/12/2016 14:40:26 -74.97, 145.35 119.79 08/12/2016 14:39:34 -74.99, 145.29 119.77 3.02 52




NCC Satellite Simultaneous Nadir Overpasses (SNOs) Prediction Service
